Mount Ida, AR

1:53 AM CST on February 23, 2017 (GMT -0600)
Mount Ida

Weather History for KMWT - January, 2012

Change the Weather History Date:

Thursday, January 19, 2012

  Actual Average (KHOT) Record (KHOT)
Temperature  
Mean Temperature 42 °F -  
Max Temperature 61 °F 49 °F 75 °F (1951)
Min Temperature 24 °F 31 °F 7 °F (1984)
Degree Days  
Heating Degree Days 22    
Moisture  
Dew Point 33 °F    
Average Humidity 75    
Maximum Humidity 97    
Minimum Humidity 46    
Precipitation  
Precipitation 0.00 in - - ()
Sea Level Pressure  
Sea Level Pressure 29.93 in    
Wind  
Wind Speed 1 mph (South)    
Max Wind Speed 7 mph    
Max Gust Speed -    
Visibility 10 miles    
Events      
Averages and records for this station are not official NWS values.
T = Trace of Precipitation, MM = Missing Value Source: NWS Daily Summary

Daily Weather History Graph

Daily Weather History Graph

Search for Another Location

Airport or City:

Trip Planner

Search our weather history database for the weather conditions in past years. The results will help you decide how hot, cold, wet, or windy it might be!

Date:

Astronomy

Jan. 19, 2012 Rise Set
Actual Time 7:19 AM CST 5:30 PM CST
Civil Twilight 6:52 AM CST 5:57 PM CST
Nautical Twilight 6:21 AM CST 6:28 PM CST
Astronomical Twilight 5:51 AM CST 6:58 PM CST
Moon 3:54 AM CST (1/19) 2:05 PM CST (1/19)
Length of Visible Light 11h 05m
Length of Day
10h 10m
Waning Crescent, 15% of the Moon is Illuminated
Jan 19
Waning Crescent
Jan 23
New
Jan 30
First Quarter
Feb 7
Full
Feb 14
Last Quarter

Hourly Weather History & Observations

Time (CST) Temp. Windchill Dew Point Humidity Pressure Visibility Wind Dir Wind Speed Gust Speed Precip Events Conditions
12:53 AM 26.1 °F - 23.0 °F 88% 30.05 in 10.0 mi Calm Calm - N/A   Clear
1:53 AM 26.1 °F - 23.0 °F 88% 30.02 in 10.0 mi Calm Calm - N/A   Clear
2:53 AM 26.1 °F - 21.9 °F 84% 30.01 in 10.0 mi Calm Calm - N/A   Clear
3:53 AM 24.1 °F - 21.9 °F 91% 30.00 in 10.0 mi Calm Calm - N/A   Clear
4:53 AM 24.1 °F - 21.9 °F 91% 29.99 in 10.0 mi Calm Calm - N/A   Clear
5:53 AM 24.1 °F - 21.9 °F 91% 29.97 in 10.0 mi Calm Calm - N/A   Clear
6:53 AM 24.1 °F - 21.9 °F 91% 29.95 in 10.0 mi Calm Calm - N/A   Clear
7:53 AM 28.0 °F - 24.1 °F 85% 29.93 in 10.0 mi Calm Calm - N/A   Clear
8:53 AM 32.0 °F - 28.0 °F 85% 29.94 in 10.0 mi Calm Calm - N/A   Clear
9:53 AM 44.1 °F 42.5 °F 33.1 °F 65% 29.94 in 10.0 mi Variable 3.5 mph - N/A   Clear
10:53 AM 51.1 °F - 37.9 °F 61% 29.89 in 10.0 mi South 6.9 mph - N/A   Clear
11:53 AM 53.1 °F - 37.9 °F 57% 29.88 in 10.0 mi Variable 3.5 mph - N/A   Clear
12:53 PM 59.0 °F - 39.9 °F 49% 29.85 in 10.0 mi Calm Calm - N/A   Clear
1:53 PM 61.0 °F - 41.0 °F 48% 29.83 in 10.0 mi Variable 3.5 mph - N/A   Clear
2:53 PM 61.0 °F - 39.9 °F 46% 29.84 in 10.0 mi Variable 3.5 mph - N/A   Clear
3:53 PM 61.0 °F - 39.9 °F 46% 29.85 in 10.0 mi Calm Calm - N/A   Clear
4:53 PM 59.0 °F - 39.9 °F 49% 29.86 in 10.0 mi SSE 3.5 mph - N/A   Clear
5:53 PM 55.0 °F - 41.0 °F 59% 29.88 in 10.0 mi Calm Calm - N/A   Clear
6:53 PM 48.9 °F - 41.0 °F 74% 29.92 in 10.0 mi Calm Calm - N/A   Clear
7:53 PM 43.0 °F - 39.0 °F 86% 29.93 in 10.0 mi Calm Calm - N/A   Clear
8:53 PM 43.0 °F - 39.0 °F 86% 29.93 in 10.0 mi Calm Calm - N/A   Clear
9:53 PM 37.9 °F - 37.0 °F 97% 29.92 in 10.0 mi Calm Calm - N/A   Clear
10:53 PM 37.9 °F - 36.0 °F 93% 29.91 in 8.0 mi Calm Calm - N/A   Clear
11:53 PM 36.0 °F - 35.1 °F 97% 29.91 in 7.0 mi Calm Calm - N/A   Clear